METEOR 2-11 DEB, 60008

Orbit data source: Space-Track

METEOR 2-11 DEB, 60008 is space debris in LEO originally from a launch on Thu, 05 Jul 1984 UTC launched from the Plesetsk Missile And Space Complex (PKMTR). Debris objects in space refer to the collection of defunct objects orbiting the Earth. Examples of debris include non-operational satellites, rocket bodies, and fragments generated from explosions, collisions, or faulty payload assembly.

Loading next visibility...
Identifier
60008, 1984-072AD
Orbit
LEO
Country
Flag of CISCIS
Related business
Manufacturer
Unknown
Mission
Spacecraft
Bus & Motor
Unknown
Mass
Unknown
Launch date (UTC)
1984-07-05 (42 years ago)
Launch vehicle
Unknown
Launch site
Plesetsk Missile And Space Complex (PKMTR)
Object type
Payload
Rocket body
Debris
Shape & HBR
Unknown shape, 0.1 m
Radar Cross Section
Small (<0.1 m²)

Expand to show TLE details & history
Last TLE update: 1 month ago

TLE from 1 month ago
0 METEOR 2-11 DEB
1 60008U 84072AD  26033.37727641  .00002991  00000-0  17543-2 0  9999
2 60008  82.5065  74.2023 0032056 237.6377 122.1692 14.07649086615203
Epoch: 2026-02-02T09:03Z
TLE epoch observation values (Epoch: 2026-02-02T09:03:16.681Z)
Latitude
-0.00009°
Longitude
165.80935°
Altitude
882.783 km
Speed
7.404 km/s
True Right ascension
04h 56m 48s
True Declination
0° 00' 00"
Sunlit
Object was in daylight at epoch
Visualization orbit readout
Latitude
Unknown
Longitude
Unknown
Altitude
Unknown
Speed
Unknown
Apparent Right ascension
Unknown
Apparent Declination
Unknown
Sunlit
N/A
Visualization observer readout
Local Sidereal Time
16:08:25
Azimuth
Unknown
Elevation
Unknown
Doppler factor
Unknown
Orbital elements
Apogee altitude
887.766 km
Perigee altitude
841.332 km
Semi-major axis
7,242.686 km
Eccentricity
0.00321
Inclination
82.5065°
RAAN
74.2023°
Arg. of periapsis
237.6377°
True anomaly
122.47948°
Mean anomaly
122.1692°
Eccentric anomaly
122.32441°
Mean motion
3.52122 °/min
Orbital period
102.24 mins
BSTAR
0.0017543
Loading maneuver chart data...
Computing Atmospheric mass density...
Loading historical data...
Loading historical data...
Loading historical data...
Loading historical data...
Loading historical data...
Loading historical data...
Loading historical data...

Documentation

Showing up to 5 results
|